Time,TemperatureF,DewpointF,PressureIn,WindDirection,WindDirectionDegrees,WindSpeedMPH,WindSpeedGustMPH,Humidity,HourlyPrecipIn,Conditions,Clouds,dailyrainin,SolarRadiationWatts/m^2,SoftwareType,DateUTC
2013-04-26 00:00:00,53.8,28.1,30.06,SSE,158,6.0,7.1,37,0.00,CLR,SCT,0.00,0.0,WeatherDisplay:10.37,2013-04-26 05:00:00,
2013-04-26 00:05:00,53.6,27.9,30.06,ESE,112,4.9,9.2,37,0.00,CLR,SCT,0.00,0.0,WeatherDisplay:10.37,2013-04-26 05:05:00,
2013-04-26 00:10:00,53.4,28.4,30.03,SSW,202,5.4,9.2,38,0.00,CLR,SCT,0.00,0.0,WeatherDisplay:10.37,2013-04-26 05:10:00,
2013-04-26 00:15:00,53.4,28.4,30.03,SSW,202,4.3,8.1,38,0.00,CLR,SCT,0.00,0.0,WeatherDisplay:10.37,2013-04-26 05:15:00,
2013-04-26 00:20:00,53.2,28.3,30.03,South,180,6.0,6.0,38,0.00,CLR,SCT,0.00,0.0,WeatherDisplay:10.37,2013-04-26 05:20:00,
2013-04-26 00:25:00,53.2,28.3,30.06,South,180,6.4,10.7,38,0.00,CLR,SCT,0.00,0.0,WeatherDisplay:10.37,2013-04-26 05:25:00,
2013-04-26 00:30:00,53.1,28.1,30.06,SSE,158,4.9,8.1,38,0.00,CLR,SCT,0.00,0.0,WeatherDisplay:10.37,2013-04-26 05:30:00,
2013-04-26 00:35:00,53.1,28.1,30.06,SSW,202,6.0,9.2,38,0.00,CLR,SCT,0.00,0.0,WeatherDisplay:10.37,2013-04-26 05:35:00,
2013-04-26 00:41:00,53.2,28.3,30.06,SSW,202,4.9,9.2,38,0.00,CLR,SCT,0.00,0.0,WeatherDisplay:10.37,2013-04-26 05:41:00,
2013-04-26 00:46:00,53.2,28.3,30.06,SSW,202,5.9,9.2,38,0.00,CLR,SCT,0.00,0.0,WeatherDisplay:10.37,2013-04-26 05:46:00,
2013-04-26 00:51:00,53.4,28.4,30.06,WSW,248,7.4,9.2,38,0.00,CLR,SCT,0.00,0.0,WeatherDisplay:10.37,2013-04-26 05:51:00,
2013-04-26 00:56:00,53.6,28.6,30.06,SSW,202,7.1,10.4,38,0.00,CLR,SCT,0.00,0.0,WeatherDisplay:10.37,2013-04-26 05:56:00,
2013-04-26 01:01:00,53.8,28.7,30.06,SSE,158,8.5,8.5,38,0.00,CLR,SCT,0.00,0.0,WeatherDisplay:10.37,2013-04-26 06:01:00,
2013-04-26 01:06:00,53.8,28.7,30.06,SSE,158,7.4,8.1,38,0.00,CLR,SCT,0.00,0.0,WeatherDisplay:10.37,2013-04-26 06:06:00,
2013-04-26 01:11:00,53.8,28.7,30.06,SSW,202,4.9,8.1,38,0.00,CLR,SCT,0.00,0.0,WeatherDisplay:10.37,2013-04-26 06:11:00,
2013-04-26 01:17:00,53.8,28.7,30.06,SSE,158,6.0,12.7,38,0.00,CLR,SCT,0.00,0.0,WeatherDisplay:10.37,2013-04-26 06:17:00,
2013-04-26 01:22:00,53.4,28.4,30.06,SSW,202,6.4,8.1,38,0.00,CLR,SCT,0.00,0.0,WeatherDisplay:10.37,2013-04-26 06:22:00,
2013-04-26 01:27:00,53.2,28.9,30.06,SW,225,6.4,9.2,39,0.00,CLR,SCT,0.00,0.0,WeatherDisplay:10.37,2013-04-26 06:27:00,
2013-04-26 01:32:00,53.1,28.7,30.06,SSW,202,5.6,6.9,39,0.00,CLR,SCT,0.00,0.0,WeatherDisplay:10.37,2013-04-26 06:32:00,
2013-04-26 01:37:00,52.9,28.6,30.06,SSW,202,6.4,8.7,39,0.00,CLR,SCT,0.00,0.0,WeatherDisplay:10.37,2013-04-26 06:37:00,
2013-04-26 01:42:00,52.9,28.6,30.06,SSW,202,5.4,7.8,39,0.00,CLR,SCT,0.00,0.0,WeatherDisplay:10.37,2013-04-26 06:42:00,
2013-04-26 01:48:00,52.7,28.4,30.06,SSW,202,6.0,8.1,39,0.00,CLR,SCT,0.00,0.0,WeatherDisplay:10.37,2013-04-26 06:48:00,
2013-04-26 01:53:00,52.7,29.0,30.06,South,180,5.9,5.9,40,0.00,CLR,SCT,0.00,0.0,WeatherDisplay:10.37,2013-04-26 06:53:00,
2013-04-26 01:58:00,52.3,28.7,30.06,SSE,158,4.5,7.1,40,0.00,CLR,SCT,0.00,0.0,WeatherDisplay:10.37,2013-04-26 06:58:00,
2013-04-26 02:03:00,52.2,28.5,30.06,South,180,3.8,8.5,40,0.00,CLR,SCT,0.00,0.0,WeatherDisplay:10.37,2013-04-26 07:03:00,
2013-04-26 02:08:00,52.0,29.0,30.06,SSE,158,5.4,7.6,41,0.00,CLR,SCT,0.00,0.0,WeatherDisplay:10.37,2013-04-26 07:08:00,
2013-04-26 02:13:00,51.8,28.8,30.06,South,180,4.9,6.9,41,0.00,CLR,SCT,0.00,0.0,WeatherDisplay:10.37,2013-04-26 07:13:00,
2013-04-26 02:18:00,51.6,29.3,30.06,SE,135,6.2,9.2,42,0.00,CLR,SCT,0.00,0.0,WeatherDisplay:10.37,2013-04-26 07:18:00,
2013-04-26 02:24:00,51.4,29.7,30.03,SSW,202,5.9,8.1,43,0.00,CLR,SCT,0.00,0.0,WeatherDisplay:10.37,2013-04-26 07:24:00,
2013-04-26 02:29:00,51.4,29.7,30.03,SSE,158,4.7,8.1,43,0.00,CLR,SCT,0.00,0.0,WeatherDisplay:10.37,2013-04-26 07:29:00,
2013-04-26 02:34:00,51.3,29.5,30.03,South,180,6.0,8.1,43,0.00,CLR,SCT,0.00,0.0,WeatherDisplay:10.37,2013-04-26 07:34:00,
2013-04-26 02:39:00,51.3,30.1,30.03,SSE,158,6.0,10.4,44,0.00,CLR,SCT,0.00,0.0,WeatherDisplay:10.37,2013-04-26 07:39:00,
2013-04-26 02:44:00,51.3,30.1,30.03,SSW,202,5.9,8.1,44,0.00,CLR,SCT,0.00,0.0,WeatherDisplay:10.37,2013-04-26 07:44:00,
2013-04-26 02:49:00,51.3,30.1,30.03,SSW,202,5.9,8.1,44,0.00,CLR,SCT,0.00,0.0,WeatherDisplay:10.37,2013-04-26 07:49:00,
2013-04-26 02:54:00,51.3,30.1,30.03,SE,135,6.7,9.2,44,0.00,CLR,SCT,0.00,0.0,WeatherDisplay:10.37,2013-04-26 07:54:00,
2013-04-26 02:59:00,51.1,29.9,30.03,SSW,202,4.3,4.6,44,0.00,CLR,SCT,0.00,0.0,WeatherDisplay:10.37,2013-04-26 07:59:00,
2013-04-26 03:04:00,50.9,30.3,30.03,SSE,158,3.1,4.6,45,0.00,CLR,SCT,0.00,0.0,WeatherDisplay:10.37,2013-04-26 08:04:00,
2013-04-26 03:09:00,50.9,30.3,30.03,ESE,112,3.8,6.9,45,0.00,CLR,SCT,0.00,0.0,WeatherDisplay:10.37,2013-04-26 08:09:00,
2013-04-26 03:14:00,50.7,30.1,30.03,SW,225,2.9,5.8,45,0.00,CLR,SCT,0.00,0.0,WeatherDisplay:10.37,2013-04-26 08:14:00,
2013-04-26 03:19:00,50.7,30.1,30.03,South,180,3.8,5.8,45,0.00,CLR,SCT,0.00,0.0,WeatherDisplay:10.37,2013-04-26 08:19:00,
2013-04-26 03:24:00,50.7,29.6,30.00,SSE,158,4.0,8.5,44,0.00,CLR,SCT,0.00,0.0,WeatherDisplay:10.37,2013-04-26 08:24:00,
2013-04-26 03:29:00,50.9,29.7,30.00,SSE,158,4.3,6.9,44,0.00,CLR,SCT,0.00,0.0,WeatherDisplay:10.37,2013-04-26 08:29:00,
2013-04-26 03:34:00,50.9,29.2,30.00,South,180,4.3,6.9,43,0.00,CLR,SCT,0.00,0.0,WeatherDisplay:10.37,2013-04-26 08:34:00,
2013-04-26 03:39:00,51.1,28.8,30.00,ESE,112,5.4,6.9,42,0.00,CLR,SCT,0.00,0.0,WeatherDisplay:10.37,2013-04-26 08:39:00,
2013-04-26 03:44:00,51.1,28.8,30.00,SSW,202,4.5,5.8,42,0.00,CLR,SCT,0.00,0.0,WeatherDisplay:10.37,2013-04-26 08:44:00,
2013-04-26 03:49:00,51.4,28.5,30.00,ESE,112,4.5,7.4,41,0.00,CLR,SCT,0.00,0.0,WeatherDisplay:10.37,2013-04-26 08:49:00,
2013-04-26 03:54:00,51.3,28.3,29.97,SW,225,3.1,4.6,41,0.00,CLR,SCT,0.00,0.0,WeatherDisplay:10.37,2013-04-26 08:54:00,
2013-04-26 03:59:00,51.3,28.3,29.97,ESE,112,4.3,5.8,41,0.00,CLR,SCT,0.00,0.0,WeatherDisplay:10.37,2013-04-26 08:59:00,
2013-04-26 04:04:00,51.4,27.9,29.97,SSE,158,4.5,5.8,40,0.00,CLR,SCT,0.00,0.0,WeatherDisplay:10.37,2013-04-26 09:04:00,
2013-04-26 04:09:00,51.6,28.1,30.00,South,180,6.0,7.4,40,0.00,CLR,SCT,0.00,0.0,WeatherDisplay:10.37,2013-04-26 09:09:00,
2013-04-26 04:14:00,51.6,28.1,30.00,SSE,158,4.5,8.1,40,0.00,CLR,SCT,0.00,0.0,WeatherDisplay:10.37,2013-04-26 09:14:00,
2013-04-26 04:19:00,51.8,27.6,30.00,South,180,5.9,6.4,39,0.00,CLR,SCT,0.00,0.0,WeatherDisplay:10.37,2013-04-26 09:19:00,
2013-04-26 04:24:00,52.0,27.8,30.00,SSW,202,4.5,5.9,39,0.00,CLR,SCT,0.00,0.0,WeatherDisplay:10.37,2013-04-26 09:24:00,
2013-04-26 04:29:00,52.0,27.1,30.00,SSE,158,6.0,6.9,38,0.00,CLR,SCT,0.00,0.0,WeatherDisplay:10.37,2013-04-26 09:29:00,
2013-04-26 04:34:00,52.0,27.1,30.00,SSW,202,6.7,8.1,38,0.00,CLR,SCT,0.00,0.0,WeatherDisplay:10.37,2013-04-26 09:34:00,
2013-04-26 04:39:00,52.2,27.3,30.00,SSW,202,5.6,8.1,38,0.00,CLR,SCT,0.00,0.0,WeatherDisplay:10.37,2013-04-26 09:39:00,
2013-04-26 04:44:00,52.0,27.1,30.00,SSW,202,4.5,7.1,38,0.00,CLR,SCT,0.00,0.0,WeatherDisplay:10.37,2013-04-26 09:44:00,
2013-04-26 04:49:00,51.8,27.0,30.00,SSE,158,5.4,9.2,38,0.00,CLR,SCT,0.00,0.0,WeatherDisplay:10.37,2013-04-26 09:49:00,
2013-04-26 04:54:00,51.8,27.0,30.00,SSE,158,6.4,9.2,38,0.00,CLR,SCT,0.00,0.0,WeatherDisplay:10.37,2013-04-26 09:54:00,
2013-04-26 04:59:00,51.8,27.0,30.00,SSE,158,4.7,5.9,38,0.00,CLR,SCT,0.00,0.0,WeatherDisplay:10.37,2013-04-26 09:59:00,
2013-04-26 05:05:00,51.6,27.4,30.00,ESE,112,4.5,10.4,39,0.00,CLR,SCT,0.00,0.0,WeatherDisplay:10.37,2013-04-26 10:05:00,
2013-04-26 05:10:00,51.6,27.4,29.97,ESE,112,6.2,9.2,39,0.00,CLR,SCT,0.00,0.0,WeatherDisplay:10.37,2013-04-26 10:10:00,
2013-04-26 05:15:00,51.4,27.3,29.97,SSE,158,6.2,11.5,39,0.00,CLR,SCT,0.00,0.0,WeatherDisplay:10.37,2013-04-26 10:15:00,
2013-04-26 05:20:00,51.4,27.3,29.97,SE,135,5.9,6.9,39,0.00,CLR,SCT,0.00,0.0,WeatherDisplay:10.37,2013-04-26 10:20:00,
2013-04-26 05:25:00,51.3,27.1,30.00,SSE,158,4.3,6.9,39,0.00,CLR,SCT,0.00,0.0,WeatherDisplay:10.37,2013-04-26 10:25:00,
2013-04-26 05:30:00,51.3,27.1,30.00,ESE,112,3.6,6.9,39,0.00,CLR,SCT,0.00,0.0,WeatherDisplay:10.37,2013-04-26 10:30:00,
2013-04-26 05:35:00,51.3,27.1,30.00,South,180,3.3,5.8,39,0.00,CLR,SCT,0.00,0.0,WeatherDisplay:10.37,2013-04-26 10:35:00,
2013-04-26 05:41:00,51.1,27.0,30.00,SSE,158,4.7,8.1,39,0.00,CLR,SCT,0.00,0.0,WeatherDisplay:10.37,2013-04-26 10:41:00,
2013-04-26 05:46:00,51.1,27.6,30.00,SSW,202,3.8,5.9,40,0.00,CLR,SCT,0.00,0.0,WeatherDisplay:10.37,2013-04-26 10:46:00,
2013-04-26 05:51:00,50.9,27.4,30.00,SSW,202,3.1,5.8,40,0.00,CLR,SCT,0.00,0.0,WeatherDisplay:10.37,2013-04-26 10:51:00,
2013-04-26 05:56:00,50.9,27.4,30.00,SSW,202,3.8,6.9,40,0.00,CLR,SCT,0.00,0.0,WeatherDisplay:10.37,2013-04-26 10:56:00,
2013-04-26 06:01:00,50.7,27.2,30.00,SSW,202,3.3,3.8,40,0.00,CLR,SCT,0.00,0.0,WeatherDisplay:10.37,2013-04-26 11:01:00,
2013-04-26 06:06:00,50.7,27.2,30.00,SSW,202,4.7,6.9,40,0.00,CLR,SCT,0.00,0.0,WeatherDisplay:10.37,2013-04-26 11:06:00,
2013-04-26 06:11:00,50.5,27.1,30.00,SSE,158,4.3,5.8,40,0.00,CLR,SCT,0.00,0.0,WeatherDisplay:10.37,2013-04-26 11:11:00,
2013-04-26 06:16:00,50.5,27.7,30.00,SW,225,5.4,8.1,41,0.00,CLR,SCT,0.00,0.0,WeatherDisplay:10.37,2013-04-26 11:16:00,
2013-04-26 06:21:00,50.4,27.5,30.00,SSW,202,5.6,8.1,41,0.00,CLR,SCT,0.00,0.0,WeatherDisplay:10.37,2013-04-26 11:21:00,
2013-04-26 06:26:00,50.4,27.5,30.00,SSE,158,4.7,6.9,41,0.00,CLR,SCT,0.00,0.0,WeatherDisplay:10.37,2013-04-26 11:26:00,
2013-04-26 06:31:00,50.4,27.5,30.00,SSE,158,6.7,7.1,41,0.00,CLR,SCT,0.00,0.0,WeatherDisplay:10.37,2013-04-26 11:31:00,
2013-04-26 06:36:00,50.4,27.5,30.00,SE,135,4.9,10.4,41,0.00,CLR,SCT,0.00,0.0,WeatherDisplay:10.37,2013-04-26 11:36:00,
2013-04-26 06:41:00,50.2,27.9,30.00,WSW,248,4.5,6.9,42,0.00,CLR,SCT,0.00,0.0,WeatherDisplay:10.37,2013-04-26 11:41:00,
2013-04-26 06:46:00,50.2,27.9,30.00,SSE,158,3.3,4.6,42,0.00,CLR,SCT,0.00,0.0,WeatherDisplay:10.37,2013-04-26 11:46:00,
2013-04-26 06:51:00,50.2,28.5,30.00,SSE,158,4.5,5.8,43,0.00,CLR,SCT,0.00,0.0,WeatherDisplay:10.37,2013-04-26 11:51:00,
2013-04-26 06:56:00,50.2,28.5,30.00,ESE,112,4.3,5.8,43,0.00,CLR,SCT,0.00,0.0,WeatherDisplay:10.37,2013-04-26 11:56:00,
2013-04-26 07:01:00,50.2,28.5,30.00,SSE,158,5.9,6.9,43,0.00,CLR,SCT,0.00,0.0,WeatherDisplay:10.37,2013-04-26 12:01:00,
2013-04-26 07:06:00,50.2,28.5,30.00,SSE,158,4.5,7.4,43,0.00,CLR,SCT,0.00,0.0,WeatherDisplay:10.37,2013-04-26 12:06:00,
2013-04-26 07:11:00,50.2,28.5,30.00,SSW,202,4.9,8.1,43,0.00,CLR,SCT,0.00,0.0,WeatherDisplay:10.37,2013-04-26 12:11:00,
2013-04-26 07:16:00,50.2,29.1,30.00,SSE,158,6.9,9.2,44,0.00,CLR,SCT,0.00,0.0,WeatherDisplay:10.37,2013-04-26 12:16:00,
2013-04-26 07:21:00,50.2,29.1,30.00,SSE,158,5.9,8.5,44,0.00,CLR,SCT,0.00,0.0,WeatherDisplay:10.37,2013-04-26 12:21:00,
2013-04-26 07:26:00,50.2,29.1,30.00,South,180,6.2,6.9,44,0.00,CLR,SCT,0.00,0.0,WeatherDisplay:10.37,2013-04-26 12:26:00,
2013-04-26 07:31:00,50.4,29.2,30.00,ESE,112,4.9,8.1,44,0.00,CLR,SCT,0.00,0.0,WeatherDisplay:10.37,2013-04-26 12:31:00,
2013-04-26 07:36:00,50.5,30.0,30.00,South,180,4.7,7.6,45,0.00,CLR,SCT,0.00,0.0,WeatherDisplay:10.37,2013-04-26 12:36:00,
2013-04-26 07:41:00,50.7,29.6,30.00,SSW,202,5.9,8.1,44,0.00,CLR,SCT,0.00,0.0,WeatherDisplay:10.37,2013-04-26 12:41:00,
2013-04-26 07:46:00,50.9,30.3,30.00,SSW,202,4.7,6.9,45,0.00,CLR,SCT,0.00,0.0,WeatherDisplay:10.37,2013-04-26 12:46:00,
2013-04-26 07:51:00,50.9,30.3,30.00,SSE,158,4.9,5.8,45,0.00,CLR,SCT,0.00,0.0,WeatherDisplay:10.37,2013-04-26 12:51:00,
2013-04-26 07:56:00,51.1,30.5,30.03,South,180,4.5,5.8,45,0.00,CLR,SCT,0.00,0.0,WeatherDisplay:10.37,2013-04-26 12:56:00,
2013-04-26 08:01:00,51.3,30.6,30.03,SSE,158,5.6,8.1,45,0.00,CLR,SCT,0.00,0.0,WeatherDisplay:10.37,2013-04-26 13:01:00,
2013-04-26 08:06:00,51.3,31.2,30.03,West,270,4.5,5.8,46,0.00,CLR,SCT,0.00,0.0,WeatherDisplay:10.37,2013-04-26 13:06:00,
2013-04-26 08:11:00,51.6,30.9,30.03,SSE,158,4.7,5.8,45,0.00,CLR,SCT,0.00,0.0,WeatherDisplay:10.37,2013-04-26 13:11:00,
2013-04-26 08:16:00,51.8,31.1,30.03,SSW,202,3.6,4.6,45,0.00,CLR,SCT,0.00,0.0,WeatherDisplay:10.37,2013-04-26 13:16:00,
2013-04-26 08:21:00,52.2,32.0,30.03,SSE,158,4.0,5.8,46,0.00,BKN,SCT,0.00,0.0,WeatherDisplay:10.37,2013-04-26 13:21:00,
2013-04-26 08:27:00,52.3,31.6,30.06,WSW,248,4.3,6.9,45,0.00,OVC,SCT,0.00,0.0,WeatherDisplay:10.37,2013-04-26 13:27:00,
2013-04-26 08:32:00,52.9,32.6,30.06,SSW,202,5.6,6.9,46,0.00,OVC,SCT,0.00,0.0,WeatherDisplay:10.37,2013-04-26 13:32:00,
2013-04-26 08:37:00,53.4,33.1,30.06,South,180,4.9,6.9,46,0.00,OVC,SCT,0.00,0.0,WeatherDisplay:10.37,2013-04-26 13:37:00,
2013-04-26 08:42:00,54.1,33.2,30.06,SSE,158,7.1,13.2,45,0.00,OVC,SCT,0.00,0.0,WeatherDisplay:10.37,2013-04-26 13:42:00,
2013-04-26 08:48:00,54.7,32.6,30.06,South,180,6.7,8.1,43,0.00,OVC,SCT,0.00,0.0,WeatherDisplay:10.37,2013-04-26 13:48:00,
2013-04-26 08:53:00,55.2,34.2,30.06,SW,225,5.6,6.9,45,0.00,OVC,SCT,0.00,0.0,WeatherDisplay:10.37,2013-04-26 13:53:00,
2013-04-26 08:58:00,55.6,33.4,30.06,South,180,6.9,12.5,43,0.00,OVC,SCT,0.00,0.0,WeatherDisplay:10.37,2013-04-26 13:58:00,
2013-04-26 09:03:00,55.9,33.7,30.06,WSW,248,6.7,10.7,43,0.00,OVC,SCT,0.00,0.0,WeatherDisplay:10.37,2013-04-26 14:03:00,
2013-04-26 09:08:00,56.1,33.3,30.06,SSE,158,7.8,15.0,42,0.00,OVC,SCT,0.00,0.0,WeatherDisplay:10.37,2013-04-26 14:08:00,
2013-04-26 09:13:00,56.5,34.2,30.06,South,180,4.9,8.1,43,0.00,OVC,SCT,0.00,0.0,WeatherDisplay:10.37,2013-04-26 14:13:00,
2013-04-26 09:18:00,56.8,34.0,30.06,SSW,202,8.5,8.5,42,0.00,OVC,SCT,0.00,0.0,WeatherDisplay:10.37,2013-04-26 14:18:00,
2013-04-26 09:24:00,56.8,34.0,30.06,SSW,202,7.6,10.4,42,0.00,OVC,SCT,0.00,0.0,WeatherDisplay:10.37,2013-04-26 14:24:00,
2013-04-26 09:29:00,57.2,34.3,30.06,SSW,202,4.9,7.6,42,0.00,OVC,SCT,0.00,0.0,WeatherDisplay:10.37,2013-04-26 14:29:00,
2013-04-26 09:34:00,57.0,34.7,30.06,SSE,158,4.9,6.0,43,0.00,OVC,SCT,0.00,0.0,WeatherDisplay:10.37,2013-04-26 14:34:00,
2013-04-26 09:39:00,57.2,34.3,30.06,SW,225,7.1,10.2,42,0.00,OVC,SCT,0.00,100.0,WeatherDisplay:10.37,2013-04-26 14:39:00,
2013-04-26 09:45:00,57.7,34.8,30.06,SSW,195,6.0,10.0,42,0.00,OVC,SCT,0.00,100.0,WeatherDisplay:10.37,2013-04-26 14:45:00,
2013-04-26 09:50:00,58.1,34.5,30.06,South,180,9.0,15.0,41,0.00,OVC,SCT,0.00,100.0,WeatherDisplay:10.37,2013-04-26 14:50:00,
2013-04-26 09:55:00,57.9,34.3,30.06,SSW,202,6.9,9.2,41,0.00,OVC,SCT,0.00,100.0,WeatherDisplay:10.37,2013-04-26 14:55:00,
2013-04-26 10:00:00,58.5,34.8,30.06,SSW,202,9.4,12.8,41,0.00,OVC,SCT,0.00,100.0,WeatherDisplay:10.37,2013-04-26 15:00:00,
2013-04-26 10:05:00,58.3,34.7,30.06,South,180,7.8,16.1,41,0.00,OVC,SCT,0.00,0.0,WeatherDisplay:10.37,2013-04-26 15:05:00,
2013-04-26 10:10:00,57.9,34.9,30.06,SSW,202,6.0,9.2,42,0.00,OVC,SCT,0.00,0.0,WeatherDisplay:10.37,2013-04-26 15:10:00,
2013-04-26 10:16:00,57.7,34.8,30.06,SSW,202,8.1,9.8,42,0.00,OVC,SCT,0.00,100.0,WeatherDisplay:10.37,2013-04-26 15:16:00,
2013-04-26 10:21:00,58.5,36.0,30.06,SSE,158,7.4,8.1,43,0.00,OVC,SCT,0.00,100.0,WeatherDisplay:10.37,2013-04-26 15:21:00,
2013-04-26 10:26:00,59.2,36.1,30.06,SSE,158,5.6,8.5,42,0.00,OVC,SCT,0.00,100.0,WeatherDisplay:10.37,2013-04-26 15:26:00,
2013-04-26 10:31:00,59.2,36.1,30.06,WSW,248,6.4,9.0,42,0.00,OVC,SCT,0.00,100.0,WeatherDisplay:10.37,2013-04-26 15:31:00,
2013-04-26 10:36:00,59.4,35.6,30.06,WNW,292,6.9,11.5,41,0.00,OVC,SCT,0.00,100.0,WeatherDisplay:10.37,2013-04-26 15:36:00,
2013-04-26 10:41:00,59.5,35.8,30.06,SW,225,7.6,8.1,41,0.00,OVC,SCT,0.00,100.0,WeatherDisplay:10.37,2013-04-26 15:41:00,
2013-04-26 10:47:00,59.9,36.7,30.06,South,180,7.1,8.1,42,0.00,OVC,SCT,0.00,100.0,WeatherDisplay:10.37,2013-04-26 15:47:00,
2013-04-26 10:52:00,60.4,37.2,30.06,South,180,5.4,11.5,42,0.00,OVC,SCT,0.00,100.0,WeatherDisplay:10.37,2013-04-26 15:52:00,
2013-04-26 10:57:00,61.3,38.0,30.06,SSW,202,6.0,9.2,42,0.00,OVC,SCT,0.00,200.0,WeatherDisplay:10.37,2013-04-26 15:57:00,
2013-04-26 11:02:00,62.1,37.4,30.06,SSE,158,5.9,8.1,40,0.00,OVC,SCT,0.00,300.0,WeatherDisplay:10.37,2013-04-26 16:02:00,
2013-04-26 11:07:00,63.7,36.2,30.06,WSW,248,7.8,9.2,36,0.00,OVC,SCT,0.00,200.0,WeatherDisplay:10.37,2013-04-26 16:07:00,
2013-04-26 11:12:00,63.9,35.7,30.06,WSW,248,7.6,12.8,35,0.00,OVC,SCT,0.00,200.0,WeatherDisplay:10.37,2013-04-26 16:12:00,
2013-04-26 11:17:00,63.5,35.3,30.06,SW,225,7.4,10.5,35,0.00,OVC,SCT,0.00,200.0,WeatherDisplay:10.37,2013-04-26 16:17:00,
2013-04-26 11:22:00,64.2,36.0,30.03,WSW,248,6.9,10.9,35,0.00,OVC,SCT,0.00,200.0,WeatherDisplay:10.37,2013-04-26 16:22:00,
2013-04-26 11:27:00,63.5,35.3,30.03,SW,225,9.4,10.4,35,0.00,OVC,SCT,0.00,200.0,WeatherDisplay:10.37,2013-04-26 16:27:00,
2013-04-26 11:32:00,63.9,35.7,30.03,SSW,202,6.7,9.2,35,0.00,OVC,SCT,0.00,200.0,WeatherDisplay:10.37,2013-04-26 16:32:00,
2013-04-26 11:38:00,64.4,35.4,30.06,ESE,112,7.4,10.4,34,0.00,OVC,SCT,0.00,200.0,WeatherDisplay:10.37,2013-04-26 16:38:00,
2013-04-26 11:43:00,63.9,35.7,30.06,SSW,202,8.1,12.7,35,0.00,OVC,SCT,0.00,100.0,WeatherDisplay:10.37,2013-04-26 16:43:00,
2013-04-26 11:48:00,63.7,35.5,30.06,SSW,202,6.0,9.2,35,0.00,OVC,SCT,0.00,100.0,WeatherDisplay:10.37,2013-04-26 16:48:00,
2013-04-26 11:53:00,63.9,35.7,30.03,WSW,248,7.6,9.2,35,0.00,OVC,SCT,0.00,100.0,WeatherDisplay:10.37,2013-04-26 16:53:00,
2013-04-26 11:58:00,63.9,34.9,30.03,SSW,202,9.7,10.4,34,0.00,OVC,SCT,0.00,100.0,WeatherDisplay:10.37,2013-04-26 16:58:00,
2013-04-26 12:03:00,63.9,34.9,30.03,SSW,202,6.2,10.4,34,0.00,OVC,SCT,0.00,200.0,WeatherDisplay:10.37,2013-04-26 17:03:00,
2013-04-26 12:08:00,64.4,35.4,30.06,SSW,202,5.6,8.1,34,0.00,OVC,SCT,0.00,200.0,WeatherDisplay:10.37,2013-04-26 17:08:00,
2013-04-26 12:13:00,64.6,35.6,30.06,WSW,248,6.9,9.2,34,0.00,OVC,SCT,0.00,100.0,WeatherDisplay:10.37,2013-04-26 17:13:00,
2013-04-26 12:18:00,65.1,36.0,30.06,SSW,202,8.1,9.2,34,0.00,OVC,SCT,0.00,200.0,WeatherDisplay:10.37,2013-04-26 17:18:00,
2013-04-26 12:23:00,65.1,36.0,30.09,South,180,6.4,8.1,34,0.00,OVC,SCT,0.00,200.0,WeatherDisplay:10.37,2013-04-26 17:23:00,
2013-04-26 12:29:00,64.8,35.7,30.09,SSW,202,5.6,10.4,34,0.00,OVC,SCT,0.00,200.0,WeatherDisplay:10.37,2013-04-26 17:29:00,
2013-04-26 12:34:00,64.8,35.7,30.09,South,180,6.0,11.5,34,0.00,OVC,SCT,0.00,100.0,WeatherDisplay:10.37,2013-04-26 17:34:00,
2013-04-26 12:39:00,64.8,35.7,30.06,SSE,158,6.2,10.4,34,0.00,OVC,SCT,0.00,100.0,WeatherDisplay:10.37,2013-04-26 17:39:00,
2013-04-26 12:44:00,65.8,37.4,30.06,SSW,202,5.4,6.4,35,0.00,OVC,SCT,0.00,300.0,WeatherDisplay:10.37,2013-04-26 17:44:00,
2013-04-26 12:49:00,65.8,36.7,30.06,ESE,112,8.5,12.1,34,0.00,OVC,SCT,0.00,200.0,WeatherDisplay:10.37,2013-04-26 17:49:00,
2013-04-26 12:54:00,65.7,36.5,30.06,SSE,158,4.7,8.1,34,0.00,OVC,SCT,0.00,100.0,WeatherDisplay:10.37,2013-04-26 17:54:00,
2013-04-26 13:00:00,66.0,36.8,30.06,ESE,112,3.6,4.6,34,0.00,OVC,SCT,0.00,200.0,WeatherDisplay:10.37,2013-04-26 18:00:00,
2013-04-26 13:05:00,66.2,36.2,30.06,WSW,248,6.0,8.1,33,0.00,OVC,SCT,0.00,200.0,WeatherDisplay:10.37,2013-04-26 18:05:00,
2013-04-26 13:10:00,66.4,36.4,30.03,SW,225,5.4,6.9,33,0.00,OVC,SCT,0.00,200.0,WeatherDisplay:10.37,2013-04-26 18:10:00,
2013-04-26 13:15:00,66.7,36.7,30.03,SSW,202,5.6,8.1,33,0.00,OVC,SCT,0.00,300.0,WeatherDisplay:10.37,2013-04-26 18:15:00,
2013-04-26 13:20:00,66.7,36.7,30.03,SSW,202,6.0,6.9,33,0.00,OVC,SCT,0.00,100.0,WeatherDisplay:10.37,2013-04-26 18:20:00,
2013-04-26 13:25:00,67.1,37.0,30.06,SSW,202,5.4,7.6,33,0.00,OVC,SCT,0.00,300.0,WeatherDisplay:10.37,2013-04-26 18:25:00,
2013-04-26 13:31:00,66.7,36.7,30.06,East,90,7.6,8.1,33,0.00,OVC,SCT,0.00,100.0,WeatherDisplay:10.37,2013-04-26 18:31:00,
2013-04-26 13:36:00,66.7,36.7,30.06,SSW,202,6.0,9.2,33,0.00,OVC,SCT,0.00,200.0,WeatherDisplay:10.37,2013-04-26 18:36:00,
2013-04-26 13:41:00,66.6,36.5,30.06,WSW,248,5.6,6.9,33,0.00,OVC,SCT,0.00,100.0,WeatherDisplay:10.37,2013-04-26 18:41:00,
2013-04-26 13:46:00,67.3,37.2,30.06,SW,225,6.2,8.1,33,0.00,OVC,SCT,0.00,300.0,WeatherDisplay:10.37,2013-04-26 18:46:00,
2013-04-26 13:51:00,68.0,37.0,30.06,WSW,248,9.0,10.4,32,0.00,OVC,SCT,0.00,400.0,WeatherDisplay:10.37,2013-04-26 18:51:00,
2013-04-26 13:56:00,68.5,38.3,30.06,South,180,8.1,11.5,33,0.00,OVC,SCT,0.00,300.0,WeatherDisplay:10.37,2013-04-26 18:56:00,
2013-04-26 14:01:00,69.3,37.3,30.06,SSW,202,7.1,10.4,31,0.00,OVC,SCT,0.00,400.0,WeatherDisplay:10.37,2013-04-26 19:01:00,
2013-04-26 14:06:00,69.1,36.3,30.06,SSW,202,5.9,6.9,30,0.00,OVC,SCT,0.00,300.0,WeatherDisplay:10.37,2013-04-26 19:06:00,
2013-04-26 14:11:00,69.3,34.7,30.06,ESE,112,4.3,5.8,28,0.00,OVC,SCT,0.00,300.0,WeatherDisplay:10.37,2013-04-26 19:11:00,
2013-04-26 14:17:00,69.3,34.7,30.06,WSW,248,6.7,10.4,28,0.00,OVC,SCT,0.00,200.0,WeatherDisplay:10.37,2013-04-26 19:17:00,
2013-04-26 14:22:00,69.4,36.6,30.06,South,180,2.6,4.6,30,0.00,OVC,SCT,0.00,300.0,WeatherDisplay:10.37,2013-04-26 19:22:00,
2013-04-26 14:27:00,69.8,36.1,30.06,WNW,292,1.4,5.8,29,0.00,OVC,SCT,0.00,300.0,WeatherDisplay:10.37,2013-04-26 19:27:00,
2013-04-26 14:32:00,70.5,37.6,30.06,SSW,202,2.9,4.7,30,0.00,OVC,SCT,0.00,200.0,WeatherDisplay:10.37,2013-04-26 19:32:00,
2013-04-26 14:37:00,70.3,39.1,30.06,SW,225,3.1,5.8,32,0.00,OVC,SCT,0.00,300.0,WeatherDisplay:10.37,2013-04-26 19:37:00,
2013-04-26 14:42:00,70.7,39.4,30.06,WSW,248,3.6,7.1,32,0.00,OVC,SCT,0.00,300.0,WeatherDisplay:10.37,2013-04-26 19:42:00,
2013-04-26 14:47:00,71.2,37.3,30.06,SSW,202,4.5,8.5,29,0.00,OVC,SCT,0.00,200.0,WeatherDisplay:10.37,2013-04-26 19:47:00,
2013-04-26 14:52:00,70.9,38.7,30.06,SSE,158,4.7,8.1,31,0.00,OVC,SCT,0.00,200.0,WeatherDisplay:10.37,2013-04-26 19:52:00,
2013-04-26 14:58:00,70.7,36.9,30.06,SE,135,3.3,5.8,29,0.00,OVC,SCT,0.00,100.0,WeatherDisplay:10.37,2013-04-26 19:58:00,
2013-04-26 15:03:00,69.8,35.2,30.06,WNW,292,6.2,6.2,28,0.00,OVC,SCT,0.00,200.0,WeatherDisplay:10.37,2013-04-26 20:03:00,
2013-04-26 15:08:00,69.6,36.8,30.06,WSW,248,6.0,10.4,30,0.00,OVC,SCT,0.00,100.0,WeatherDisplay:10.37,2013-04-26 20:08:00,
2013-04-26 15:13:00,69.4,36.6,30.06,WSW,248,5.6,7.1,30,0.00,OVC,SCT,0.00,100.0,WeatherDisplay:10.37,2013-04-26 20:13:00,
2013-04-26 15:18:00,69.4,36.6,30.06,ESE,112,3.6,5.8,30,0.00,OVC,SCT,0.00,200.0,WeatherDisplay:10.37,2013-04-26 20:18:00,
2013-04-26 15:23:00,69.8,36.9,30.03,SSW,202,5.9,6.9,30,0.00,OVC,SCT,0.00,100.0,WeatherDisplay:10.37,2013-04-26 20:23:00,
2013-04-26 15:28:00,70.3,39.1,30.03,SSW,202,4.5,7.4,32,0.00,OVC,SCT,0.00,200.0,WeatherDisplay:10.37,2013-04-26 20:28:00,
2013-04-26 15:33:00,70.3,39.1,30.03,SE,135,5.9,8.1,32,0.00,OVC,SCT,0.00,100.0,WeatherDisplay:10.37,2013-04-26 20:33:00,
2013-04-26 15:39:00,70.0,38.8,30.06,SE,135,2.9,4.7,32,0.00,OVC,SCT,0.00,0.0,WeatherDisplay:10.37,2013-04-26 20:39:00,
2013-04-26 15:44:00,70.0,38.8,30.06,West,270,2.6,3.6,32,0.00,OVC,SCT,0.00,300.0,WeatherDisplay:10.37,2013-04-26 20:44:00,
2013-04-26 15:49:00,70.0,37.9,30.06,WSW,248,5.6,8.1,31,0.00,OVC,SCT,0.00,100.0,WeatherDisplay:10.37,2013-04-26 20:49:00,
2013-04-26 15:54:00,70.3,39.1,30.06,SW,225,3.8,4.6,32,0.00,OVC,SCT,0.00,200.0,WeatherDisplay:10.37,2013-04-26 20:54:00,
2013-04-26 15:59:00,71.2,39.0,30.06,SSW,202,2.9,4.6,31,0.00,OVC,SCT,0.00,200.0,WeatherDisplay:10.37,2013-04-26 20:59:00,
2013-04-26 16:05:00,71.2,39.9,30.06,South,180,6.7,8.1,32,0.00,OVC,SCT,0.00,100.0,WeatherDisplay:10.37,2013-04-26 21:05:00,
2013-04-26 16:10:00,70.2,38.9,30.06,WSW,248,4.0,8.1,32,0.00,OVC,SCT,0.00,0.0,WeatherDisplay:10.37,2013-04-26 21:10:00,
2013-04-26 16:15:00,69.4,38.3,30.06,South,180,5.9,5.9,32,0.00,OVC,SCT,0.00,0.0,WeatherDisplay:10.37,2013-04-26 21:15:00,
2013-04-26 16:20:00,69.4,39.1,30.06,South,180,5.6,6.9,33,0.00,OVC,SCT,0.00,0.0,WeatherDisplay:10.37,2013-04-26 21:20:00,
2013-04-26 16:25:00,69.4,38.3,30.06,SSW,202,4.3,5.8,32,0.00,OVC,SCT,0.00,0.0,WeatherDisplay:10.37,2013-04-26 21:25:00,
2013-04-26 16:30:00,69.6,39.2,30.06,SSE,158,3.1,5.8,33,0.00,OVC,SCT,0.00,0.0,WeatherDisplay:10.37,2013-04-26 21:30:00,
2013-04-26 16:35:00,69.3,38.1,30.06,WSW,248,6.7,9.2,32,0.00,OVC,SCT,0.00,100.0,WeatherDisplay:10.37,2013-04-26 21:35:00,
2013-04-26 16:41:00,70.5,39.2,30.06,WSW,248,6.2,8.1,32,0.00,OVC,SCT,0.00,0.0,WeatherDisplay:10.37,2013-04-26 21:41:00,
2013-04-26 16:46:00,69.6,38.4,30.06,SSE,158,3.8,6.9,32,0.00,OVC,SCT,0.00,0.0,WeatherDisplay:10.37,2013-04-26 21:46:00,
2013-04-26 16:51:00,70.0,38.8,30.06,ESE,112,9.4,13.8,32,0.00,OVC,SCT,0.00,100.0,WeatherDisplay:10.37,2013-04-26 21:51:00,
2013-04-26 16:56:00,69.6,39.2,30.09,SSW,202,7.6,10.2,33,0.00,OVC,SCT,0.00,0.0,WeatherDisplay:10.37,2013-04-26 21:56:00,
2013-04-26 17:02:00,69.4,39.1,30.09,ENE,68,4.9,8.1,33,0.00,OVC,SCT,0.00,0.0,WeatherDisplay:10.37,2013-04-26 22:02:00,
2013-04-26 17:07:00,69.1,38.8,30.06,SW,225,6.4,10.4,33,0.00,OVC,SCT,0.00,0.0,WeatherDisplay:10.37,2013-04-26 22:07:00,
2013-04-26 17:12:00,68.7,38.4,30.06,SSW,202,6.0,9.2,33,0.00,OVC,SCT,0.00,0.0,WeatherDisplay:10.37,2013-04-26 22:12:00,
2013-04-26 17:17:00,69.3,39.7,30.06,SW,225,7.6,9.2,34,0.00,OVC,SCT,0.00,100.0,WeatherDisplay:10.37,2013-04-26 22:17:00,
2013-04-26 17:22:00,68.7,38.4,30.06,SSW,202,7.1,10.4,33,0.00,OVC,SCT,0.00,0.0,WeatherDisplay:10.37,2013-04-26 22:22:00,
2013-04-26 17:27:00,68.5,38.3,30.06,South,180,7.8,12.7,33,0.00,OVC,SCT,0.00,0.0,WeatherDisplay:10.37,2013-04-26 22:27:00,
2013-04-26 17:32:00,68.2,38.7,30.06,South,180,4.9,5.8,34,0.00,OVC,SCT,0.00,0.0,WeatherDisplay:10.37,2013-04-26 22:32:00,
2013-04-26 17:37:00,68.2,38.7,30.06,SE,135,5.6,6.9,34,0.00,OVC,SCT,0.00,0.0,WeatherDisplay:10.37,2013-04-26 22:37:00,
2013-04-26 17:43:00,68.2,38.7,30.06,WSW,248,5.6,11.5,34,0.00,OVC,SCT,0.00,0.0,WeatherDisplay:10.37,2013-04-26 22:43:00,
2013-04-26 17:48:00,68.0,38.6,30.06,South,180,7.4,11.5,34,0.00,OVC,SCT,0.00,0.0,WeatherDisplay:10.37,2013-04-26 22:48:00,
2013-04-26 17:53:00,67.5,38.8,30.03,SSE,158,9.4,10.4,35,0.00,OVC,SCT,0.00,0.0,WeatherDisplay:10.37,2013-04-26 22:53:00,
2013-04-26 17:58:00,66.2,39.8,30.03,SSE,158,10.2,13.8,38,0.00,OVC,SCT,0.00,0.0,WeatherDisplay:10.37,2013-04-26 22:58:00,
2013-04-26 18:03:00,65.5,40.5,30.03,South,180,6.0,15.0,40,0.00,OVC,SCT,0.00,0.0,WeatherDisplay:10.37,2013-04-26 23:03:00,
2013-04-26 18:08:00,64.8,41.1,30.06,SSE,158,7.1,13.8,42,0.00,OVC,SCT,0.00,0.0,WeatherDisplay:10.37,2013-04-26 23:08:00,
2013-04-26 18:14:00,64.2,41.2,30.06,South,180,9.0,12.7,43,0.00,OVC,SCT,0.00,0.0,WeatherDisplay:10.37,2013-04-26 23:14:00,
2013-04-26 18:19:00,63.9,41.5,30.06,SSE,158,7.1,8.1,44,0.00,OVC,SCT,0.00,0.0,WeatherDisplay:10.37,2013-04-26 23:19:00,
2013-04-26 18:24:00,63.3,41.0,30.06,SSE,158,7.4,13.8,44,0.00,OVC,SCT,0.00,0.0,WeatherDisplay:10.37,2013-04-26 23:24:00,
2013-04-26 18:29:00,63.3,41.6,30.06,SSW,202,6.2,8.1,45,0.00,OVC,SCT,0.00,0.0,WeatherDisplay:10.37,2013-04-26 23:29:00,
2013-04-26 18:34:00,63.1,41.4,30.06,SSE,158,4.5,8.1,45,0.00,BKN,SCT,0.00,0.0,WeatherDisplay:10.37,2013-04-26 23:34:00,
2013-04-26 18:39:00,63.0,41.3,30.06,SSE,158,6.7,9.2,45,0.00,FEW,SCT,0.00,0.0,WeatherDisplay:10.37,2013-04-26 23:39:00,
2013-04-26 18:44:00,62.8,41.7,30.06,SSW,202,7.6,8.1,46,0.00,CLR,SCT,0.00,0.0,WeatherDisplay:10.37,2013-04-26 23:44:00,
2013-04-26 18:49:00,62.8,42.2,30.06,South,180,6.9,9.2,47,0.00,CLR,SCT,0.00,0.0,WeatherDisplay:10.37,2013-04-26 23:49:00,
2013-04-26 19:05:00,62.8,42.2,30.06,South,180,6.4,10.4,47,0.00,CLR,SCT,0.00,0.0,WeatherDisplay:10.37,2013-04-27 00:05:00,
2013-04-26 19:11:00,62.8,42.2,30.06,SSW,202,3.6,5.8,47,0.00,CLR,SCT,0.00,0.0,WeatherDisplay:10.37,2013-04-27 00:11:00,
2013-04-26 19:16:00,62.8,42.2,30.06,SSW,202,4.9,8.1,47,0.00,CLR,SCT,0.00,0.0,WeatherDisplay:10.37,2013-04-27 00:16:00,
2013-04-26 19:21:00,62.8,41.7,30.06,South,180,6.9,7.4,46,0.00,CLR,SCT,0.00,0.0,WeatherDisplay:10.37,2013-04-27 00:21:00,
2013-04-26 19:26:00,62.6,42.1,30.09,SSE,158,6.2,7.8,47,0.00,CLR,SCT,0.00,0.0,WeatherDisplay:10.37,2013-04-27 00:26:00,
2013-04-26 19:31:00,62.6,42.1,30.09,SSE,158,6.0,9.2,47,0.00,CLR,SCT,0.00,0.0,WeatherDisplay:10.37,2013-04-27 00:31:00,
2013-04-26 19:36:00,62.4,41.9,30.09,SE,135,4.9,6.9,47,0.00,CLR,SCT,0.00,0.0,WeatherDisplay:10.37,2013-04-27 00:36:00,
2013-04-26 19:41:00,62.2,41.7,30.06,SSE,158,4.9,6.9,47,0.00,CLR,SCT,0.00,0.0,WeatherDisplay:10.37,2013-04-27 00:41:00,
2013-04-26 19:46:00,62.1,42.1,30.06,SSE,158,4.5,9.2,48,0.00,CLR,SCT,0.00,0.0,WeatherDisplay:10.37,2013-04-27 00:46:00,
2013-04-26 19:51:00,61.9,42.0,30.06,SSW,202,5.6,7.1,48,0.00,CLR,SCT,0.00,0.0,WeatherDisplay:10.37,2013-04-27 00:51:00,
2013-04-26 19:57:00,61.7,41.8,30.06,SSE,158,4.5,5.9,48,0.00,CLR,SCT,0.00,0.0,WeatherDisplay:10.37,2013-04-27 00:57:00,
2013-04-26 20:02:00,61.3,42.0,30.06,South,180,5.9,5.9,49,0.00,CLR,SCT,0.00,0.0,WeatherDisplay:10.37,2013-04-27 01:02:00,
2013-04-26 20:07:00,61.0,41.7,30.06,South,180,5.4,6.9,49,0.00,CLR,SCT,0.00,0.0,WeatherDisplay:10.37,2013-04-27 01:07:00,
2013-04-26 20:12:00,60.6,41.9,30.06,SSE,158,3.8,6.0,50,0.00,CLR,SCT,0.00,0.0,WeatherDisplay:10.37,2013-04-27 01:12:00,
2013-04-26 20:17:00,60.3,42.0,30.06,South,180,6.4,8.1,51,0.00,CLR,SCT,0.00,0.0,WeatherDisplay:10.37,2013-04-27 01:17:00,
2013-04-26 20:22:00,60.1,42.4,30.09,SSW,202,3.3,3.8,52,0.00,CLR,SCT,0.00,0.0,WeatherDisplay:10.37,2013-04-27 01:22:00,
2013-04-26 20:28:00,59.7,42.1,30.09,SSW,202,4.3,5.8,52,0.00,CLR,SCT,0.00,0.0,WeatherDisplay:10.37,2013-04-27 01:28:00,
2013-04-26 20:33:00,59.4,42.2,30.09,SSW,202,3.6,6.9,53,0.00,CLR,SCT,0.00,0.0,WeatherDisplay:10.37,2013-04-27 01:33:00,
2013-04-26 20:38:00,59.0,42.4,30.09,SSE,158,3.3,5.8,54,0.00,CLR,SCT,0.00,0.0,WeatherDisplay:10.37,2013-04-27 01:38:00,
2013-04-26 20:43:00,58.6,42.0,30.09,South,180,3.6,4.6,54,0.00,CLR,SCT,0.00,0.0,WeatherDisplay:10.37,2013-04-27 01:43:00,
2013-04-26 20:48:00,58.3,42.2,30.09,SSE,158,3.6,5.8,55,0.00,CLR,SCT,0.00,0.0,WeatherDisplay:10.37,2013-04-27 01:48:00,
2013-04-26 20:53:00,57.9,41.8,30.09,ESE,112,3.8,7.6,55,0.00,CLR,SCT,0.00,0.0,WeatherDisplay:10.37,2013-04-27 01:53:00,
2013-04-26 20:58:00,57.7,41.7,30.09,SSW,202,3.6,6.2,55,0.00,CLR,SCT,0.00,0.0,WeatherDisplay:10.37,2013-04-27 01:58:00,
2013-04-26 21:03:00,57.4,41.8,30.09,ESE,112,4.3,6.9,56,0.00,CLR,SCT,0.00,0.0,WeatherDisplay:10.37,2013-04-27 02:03:00,
2013-04-26 21:08:00,57.0,42.4,30.09,South,180,5.4,9.2,58,0.00,CLR,SCT,0.00,0.0,WeatherDisplay:10.37,2013-04-27 02:08:00,
2013-04-26 21:14:00,56.7,42.5,30.09,SSE,158,5.6,8.1,59,0.00,CLR,SCT,0.00,0.0,WeatherDisplay:10.37,2013-04-27 02:14:00,
2013-04-26 21:19:00,56.3,42.1,30.09,SSE,158,5.9,8.1,59,0.00,CLR,SCT,0.00,0.0,WeatherDisplay:10.37,2013-04-27 02:19:00,
2013-04-26 21:24:00,55.9,42.7,30.12,South,180,5.4,6.9,61,0.00,CLR,SCT,0.00,0.0,WeatherDisplay:10.37,2013-04-27 02:24:00,
2013-04-26 21:30:00,55.6,42.3,30.12,SSW,202,4.7,5.8,61,0.00,CLR,SCT,0.00,0.0,WeatherDisplay:10.37,2013-04-27 02:30:00,
2013-04-26 21:35:00,55.2,42.8,30.12,SSW,202,5.4,6.0,63,0.00,CLR,SCT,0.00,0.0,WeatherDisplay:10.37,2013-04-27 02:35:00,
2013-04-26 21:40:00,55.0,43.1,30.12,SSE,158,4.7,6.9,64,0.00,CLR,SCT,0.00,0.0,WeatherDisplay:10.37,2013-04-27 02:40:00,
2013-04-26 21:45:00,54.7,43.1,30.12,SSE,158,5.4,7.1,65,0.00,CLR,SCT,0.00,0.0,WeatherDisplay:10.37,2013-04-27 02:45:00,
2013-04-26 21:50:00,54.3,43.2,30.12,SSE,158,4.9,8.1,66,0.00,CLR,SCT,0.00,0.0,WeatherDisplay:10.37,2013-04-27 02:50:00,
2013-04-26 21:55:00,54.1,43.0,30.12,SSE,158,4.5,5.8,66,0.00,CLR,SCT,0.00,0.0,WeatherDisplay:10.37,2013-04-27 02:55:00,
2013-04-26 22:00:00,54.0,43.2,30.12,South,180,5.9,8.1,67,0.00,CLR,SCT,0.00,0.0,WeatherDisplay:10.37,2013-04-27 03:00:00,
2013-04-26 22:05:00,53.4,43.9,30.12,SSE,158,4.5,6.2,70,0.00,CLR,SCT,0.00,0.0,WeatherDisplay:10.37,2013-04-27 03:05:00,
2013-04-26 22:10:00,53.2,43.7,30.12,SSE,158,5.4,6.9,70,0.00,CLR,SCT,0.00,0.0,WeatherDisplay:10.37,2013-04-27 03:10:00,
2013-04-26 22:16:00,53.1,43.9,30.12,SSW,202,6.4,9.2,71,0.00,CLR,SCT,0.00,0.0,WeatherDisplay:10.37,2013-04-27 03:16:00,
2013-04-26 22:21:00,52.7,43.9,30.12,WSW,248,6.4,9.2,72,0.00,CLR,SCT,0.00,0.0,WeatherDisplay:10.37,2013-04-27 03:21:00,
2013-04-26 22:26:00,52.5,44.1,30.12,SSE,158,4.7,8.7,73,0.00,CLR,SCT,0.00,0.0,WeatherDisplay:10.37,2013-04-27 03:26:00,
2013-04-26 22:31:00,52.3,43.9,30.12,South,180,4.5,5.9,73,0.00,CLR,SCT,0.00,0.0,WeatherDisplay:10.37,2013-04-27 03:31:00,
2013-04-26 22:36:00,52.0,43.9,30.12,SW,225,5.4,6.9,74,0.00,CLR,SCT,0.00,0.0,WeatherDisplay:10.37,2013-04-27 03:36:00,
2013-04-26 22:41:00,51.8,44.1,30.15,SSW,202,3.6,4.6,75,0.00,CLR,SCT,0.00,0.0,WeatherDisplay:10.37,2013-04-27 03:41:00,
2013-04-26 22:46:00,51.6,44.0,30.15,WSW,248,4.0,4.6,75,0.00,CLR,SCT,0.00,0.0,WeatherDisplay:10.37,2013-04-27 03:46:00,
2013-04-26 22:51:00,51.4,43.8,30.15,SSE,158,4.0,6.4,75,0.00,CLR,SCT,0.00,0.0,WeatherDisplay:10.37,2013-04-27 03:51:00,
2013-04-26 22:57:00,51.3,44.0,30.15,SSE,158,3.6,4.6,76,0.00,CLR,SCT,0.00,0.0,WeatherDisplay:10.37,2013-04-27 03:57:00,
2013-04-26 23:01:00,51.3,44.0,30.15,South,180,3.8,3.8,76,0.00,CLR,SCT,0.00,0.0,WeatherDisplay:10.37,2013-04-27 04:01:00,
2013-04-26 23:02:00,51.1,43.8,30.15,SSW,202,3.3,5.8,76,0.00,CLR,SCT,0.00,0.0,WeatherDisplay:10.37,2013-04-27 04:02:00,
2013-04-26 23:03:00,51.1,44.1,30.15,SSE,158,4.0,5.8,77,0.00,CLR,SCT,0.00,0.0,WeatherDisplay:10.37,2013-04-27 04:03:00,
2013-04-26 23:05:00,50.9,44.3,30.15,South,180,4.9,6.0,78,0.00,CLR,SCT,0.00,0.0,WeatherDisplay:10.37,2013-04-27 04:05:00,
2013-04-26 23:10:00,50.9,44.6,30.15,WSW,248,3.8,5.8,79,0.00,CLR,SCT,0.00,0.0,WeatherDisplay:10.37,2013-04-27 04:10:00,
2013-04-26 23:15:00,50.7,44.4,30.15,South,180,4.3,5.8,79,0.00,CLR,SCT,0.00,0.0,WeatherDisplay:10.37,2013-04-27 04:15:00,
2013-04-26 23:21:00,50.5,44.3,30.15,SSW,202,2.9,3.5,79,0.00,CLR,SCT,0.00,0.0,WeatherDisplay:10.37,2013-04-27 04:21:00,
2013-04-26 23:26:00,50.4,44.1,30.15,South,180,4.0,4.6,79,0.00,CLR,SCT,0.00,0.0,WeatherDisplay:10.37,2013-04-27 04:26:00,
2013-04-26 23:31:00,50.2,43.9,30.15,SSE,158,3.1,4.6,79,0.00,CLR,SCT,0.00,0.0,WeatherDisplay:10.37,2013-04-27 04:31:00,
2013-04-26 23:36:00,49.8,44.2,30.15,South,180,1.6,4.0,81,0.00,CLR,SCT,0.00,0.0,WeatherDisplay:10.37,2013-04-27 04:36:00,
2013-04-26 23:41:00,49.6,44.4,30.15,SSE,158,2.9,4.0,82,0.00,CLR,SCT,0.00,0.0,WeatherDisplay:10.37,2013-04-27 04:41:00,
2013-04-26 23:46:00,49.6,44.0,30.15,SSE,158,2.2,3.5,81,0.00,CLR,SCT,0.00,0.0,WeatherDisplay:10.37,2013-04-27 04:46:00,
2013-04-26 23:52:00,49.5,44.5,30.15,SSW,202,2.9,3.6,83,0.00,CLR,SCT,0.00,0.0,WeatherDisplay:10.37,2013-04-27 04:52:00,
2013-04-26 23:57:00,49.5,44.8,30.15,South,180,3.1,3.8,84,0.00,CLR,SCT,0.00,0.0,WeatherDisplay:10.37,2013-04-27 04:57:00,